TimeCDT,TemperatureF,Dew PointF,Humidity,Sea Level PressureIn,VisibilityMPH,Wind Direction,Wind SpeedMPH,Gust SpeedMPH,PrecipitationIn,Events,Conditions,WindDirDegrees,DateUTC
12:53 AM,63.0,61.0,93,30.08,8.0,South,4.6,-,N/A,,Clear,180,2013-08-19 05:53:00
1:53 AM,64.9,61.0,87,30.06,10.0,South,5.8,-,N/A,,Clear,180,2013-08-19 06:53:00
2:53 AM,64.0,61.0,90,30.04,10.0,South,5.8,-,N/A,,Clear,170,2013-08-19 07:53:00
3:53 AM,63.0,60.1,90,30.05,9.0,SSE,4.6,-,N/A,,Clear,160,2013-08-19 08:53:00
4:53 AM,60.1,59.0,96,30.05,6.0,Calm,Calm,-,N/A,,Scattered Clouds,0,2013-08-19 09:53:00
5:53 AM,61.0,60.1,97,30.06,5.0,Calm,Calm,-,N/A,,Scattered Clouds,0,2013-08-19 10:53:00
6:53 AM,61.0,60.1,97,30.06,3.0,Calm,Calm,-,N/A,,Mostly Cloudy,0,2013-08-19 11:53:00
7:53 AM,64.9,63.0,93,30.06,6.0,SSE,5.8,-,N/A,,Overcast,160,2013-08-19 12:53:00
8:53 AM,68.0,64.0,87,30.08,9.0,South,6.9,-,N/A,,Mostly Cloudy,170,2013-08-19 13:53:00
9:53 AM,73.0,64.9,76,30.07,10.0,South,9.2,-,N/A,,Partly Cloudy,180,2013-08-19 14:53:00
10:53 AM,77.0,66.9,71,30.07,10.0,South,10.4,-,N/A,,Partly Cloudy,170,2013-08-19 15:53:00
11:53 AM,79.0,66.9,66,30.07,10.0,South,12.7,-,N/A,,Partly Cloudy,180,2013-08-19 16:53:00
12:53 PM,81.0,68.0,65,30.05,10.0,South,11.5,-,N/A,,Partly Cloudy,180,2013-08-19 17:53:00
1:53 PM,82.0,69.1,65,30.03,10.0,South,9.2,18.4,N/A,,Clear,180,2013-08-19 18:53:00
2:53 PM,82.9,68.0,60,30.01,10.0,South,11.5,-,N/A,,Partly Cloudy,180,2013-08-19 19:53:00
3:53 PM,82.9,68.0,60,29.99,10.0,South,12.7,-,N/A,,Clear,190,2013-08-19 20:53:00
4:53 PM,82.9,68.0,60,29.98,10.0,South,11.5,-,N/A,,Partly Cloudy,180,2013-08-19 21:53:00
5:53 PM,82.9,68.0,60,29.97,10.0,South,10.4,-,N/A,,Clear,190,2013-08-19 22:53:00
6:53 PM,81.0,69.1,67,29.96,10.0,SSE,6.9,-,N/A,,Clear,160,2013-08-19 23:53:00
7:53 PM,75.9,70.0,82,29.96,9.0,SSE,5.8,-,N/A,,Clear,150,2013-08-20 00:53:00
8:53 PM,73.0,68.0,84,29.96,10.0,SSE,4.6,-,N/A,,Clear,160,2013-08-20 01:53:00
9:53 PM,72.0,68.0,87,29.98,10.0,SSE,6.9,-,N/A,,Clear,150,2013-08-20 02:53:00
10:53 PM,72.0,66.9,84,29.98,10.0,SSE,8.1,-,N/A,,Clear,160,2013-08-20 03:53:00
11:53 PM,72.0,66.9,84,29.98,10.0,South,8.1,-,N/A,,Clear,170,2013-08-20 04:53:00